TimeMST,TemperatureF,Dew PointF,Humidity,Sea Level PressureIn,VisibilityMPH,Wind Direction,Wind SpeedMPH,Gust SpeedMPH,PrecipitationIn,Events,Conditions,WindDirDegrees,DateUTC
12:54 AM,24.1,14.0,65,29.85,10.0,SW,12.7,-,N/A,,Clear,220,2012-02-20 07:54:00
1:54 AM,23.0,12.9,65,29.85,10.0,SW,13.8,-,N/A,,Clear,220,2012-02-20 08:54:00
2:54 AM,25.0,12.0,58,29.84,10.0,WSW,16.1,-,N/A,,Clear,240,2012-02-20 09:54:00
3:54 AM,23.0,12.0,63,29.83,10.0,SW,13.8,-,N/A,,Clear,220,2012-02-20 10:54:00
4:54 AM,24.1,12.9,62,29.83,10.0,WSW,13.8,-,N/A,,Clear,240,2012-02-20 11:54:00
5:54 AM,27.0,12.0,53,29.84,10.0,WSW,17.3,-,N/A,,Mostly Cloudy,240,2012-02-20 12:54:00
6:54 AM,27.0,12.0,53,29.84,10.0,WSW,11.5,-,N/A,,Overcast,240,2012-02-20 13:54:00
7:54 AM,26.1,12.9,58,29.87,10.0,WSW,8.1,-,N/A,,Overcast,250,2012-02-20 14:54:00
8:54 AM,28.0,12.9,53,29.89,10.0,West,10.4,-,N/A,,Overcast,270,2012-02-20 15:54:00
9:54 AM,28.0,14.0,56,29.89,10.0,North,-9999.0,-,N/A,,Overcast,0,2012-02-20 16:54:00
10:54 AM,28.9,17.1,61,29.89,10.0,WNW,18.4,-,0.00,,Overcast,300,2012-02-20 17:54:00
11:54 AM,30.9,18.0,59,29.87,10.0,NW,17.3,24.2,N/A,,Overcast,320,2012-02-20 18:54:00
1:54 PM,30.0,21.9,72,29.86,7.0,NW,10.4,19.6,0.00,Snow,Light Snow,320,2012-02-20 20:54:00
2:31 PM,28.4,21.2,74,29.77,1.8,NW,9.2,18.4,0.00,Snow,Light Snow,320,2012-02-20 21:31:00
2:41 PM,28.4,21.2,74,29.76,4.0,NW,9.2,-,0.00,Snow,Light Snow,320,2012-02-20 21:41:00
2:54 PM,28.9,21.0,72,29.87,10.0,NW,9.2,-,0.00,,Mostly Cloudy,310,2012-02-20 21:54:00
3:54 PM,30.0,21.0,69,29.87,10.0,NNW,8.1,-,N/A,,Overcast,330,2012-02-20 22:54:00
4:33 PM,28.4,21.2,74,29.77,2.5,WNW,6.9,-,0.00,Snow,Light Snow,300,2012-02-20 23:33:00
4:41 PM,28.4,21.2,74,29.77,6.0,NW,5.8,-,0.00,Snow,Light Snow,310,2012-02-20 23:41:00
4:49 PM,28.4,21.2,74,29.78,9.0,WNW,6.9,-,0.00,,Overcast,290,2012-02-20 23:49:00
4:54 PM,28.9,23.0,78,29.88,9.0,WNW,6.9,-,0.00,,Overcast,290,2012-02-20 23:54:00
5:06 PM,28.4,23.0,80,29.78,2.0,WNW,6.9,-,0.00,Snow,Light Snow,290,2012-02-21 00:06:00
5:32 PM,26.6,24.8,93,29.78,1.0,West,6.9,-,0.00,Snow,Light Snow,280,2012-02-21 00:32:00
5:47 PM,26.6,24.8,93,29.79,0.8,West,8.1,-,0.01,Snow,Light Snow,270,2012-02-21 00:47:00
5:54 PM,26.1,25.0,96,29.89,0.8,West,8.1,-,0.01,Snow,Light Snow,270,2012-02-21 00:54:00
6:14 PM,26.6,24.8,93,29.80,1.8,WNW,6.9,-,0.01,Snow,Light Snow,290,2012-02-21 01:14:00
6:28 PM,26.6,24.8,93,29.80,2.0,West,6.9,-,0.01,Snow,Light Snow,280,2012-02-21 01:28:00
6:46 PM,26.6,24.8,93,29.80,1.5,WNW,4.6,-,0.02,Snow,Light Snow,290,2012-02-21 01:46:00
6:54 PM,26.1,25.0,96,29.91,2.0,WNW,4.6,-,0.02,Snow,Light Snow,290,2012-02-21 01:54:00
7:38 PM,24.8,24.8,100,29.80,1.8,WSW,3.5,-,0.01,Snow,Light Snow,250,2012-02-21 02:38:00
7:49 PM,24.8,24.8,100,29.80,3.0,WSW,4.6,-,0.01,Snow,Light Snow,240,2012-02-21 02:49:00
7:50 PM,25.0,24.1,96,29.91,3.0,WSW,3.5,-,0.01,Snow,Light Snow,240,2012-02-21 02:50:00
8:04 PM,24.8,23.0,93,29.80,4.0,WSW,4.6,-,0.00,Snow,Light Snow,250,2012-02-21 03:04:00
8:17 PM,24.8,24.8,100,29.80,2.5,WSW,4.6,-,0.00,Snow,Light Snow,240,2012-02-21 03:17:00
8:45 PM,24.8,23.0,93,29.80,4.0,SW,5.8,-,0.00,Snow,Light Snow,220,2012-02-21 03:45:00
8:54 PM,25.0,23.0,92,29.90,7.0,SW,5.8,-,0.00,Snow,Light Snow,220,2012-02-21 03:54:00
9:54 PM,24.1,21.9,91,29.90,10.0,SSW,6.9,-,0.00,,Overcast,210,2012-02-21 04:54:00
10:54 PM,23.0,19.9,88,29.89,10.0,SW,6.9,-,N/A,,Overcast,220,2012-02-21 05:54:00
11:54 PM,24.1,21.0,88,29.85,10.0,SSW,6.9,-,N/A,,Overcast,200,2012-02-21 06:54:00